Location: Quebec
(46.8000°N, 71.2500°W)
Time: 12:15:01
(UTC-05:00)

Vanguard 2 - Visible Passes

Search period start: 16 January 2018 00:00
Search period end: 26 January 2018 00:00
Orbit: 552 x 2940 km, 32.9° (Epoch: 16 January)

Date Brightness Start Highest point End Pass type
(mag) Time Alt. Az. Time Alt. Az. Time Alt. Az.
16 Jan 11.0 02:33:19 15° SE 02:35:09 16° SE 02:41:53 10° ESE visible
16 Jan 10.7 04:34:46 16° SSW 04:43:03 37° SSE 04:57:10 10° E visible
16 Jan 10.9 06:40:25 10° WSW 06:53:06 48° S 07:09:34 10° ESE visible
17 Jan 10.7 02:50:41 20° SSE 02:52:23 21° SE 03:01:14 10° E visible
17 Jan 10.6 04:52:08 16° SW 05:00:43 41° SSE 05:15:22 10° E visible
18 Jan 10.5 03:07:59 24° SSE 03:09:45 25° SE 03:20:01 10° E visible
18 Jan 10.5 05:09:26 15° SW 05:18:28 43° SSE 05:33:28 10° ESE visible
19 Jan 10.3 03:25:14 28° SSE 03:27:13 30° SSE 03:38:30 10° E visible
19 Jan 10.5 05:26:40 13° WSW 05:36:17 45° S 05:51:27 10° ESE visible
20 Jan 11.2 01:41:00 11° ESE 01:41:00 11° ESE 01:41:32 10° ESE visible
20 Jan 10.1 03:42:26 31° S 03:44:47 34° SSE 03:56:49 10° E visible
20 Jan 10.5 05:43:52 11° WSW 05:54:09 44° S 06:09:21 10° ESE visible
21 Jan 11.0 01:58:09 15° ESE 01:58:09 15° ESE 02:01:05 10° ESE visible
21 Jan 10.0 03:59:35 32° SSW 04:02:27 37° SSE 04:14:58 10° ESE visible
21 Jan 10.6 06:01:29 10° WSW 06:12:02 43° S 06:27:06 10° ESE visible
22 Jan 10.8 02:15:17 19° ESE 02:15:17 19° ESE 02:19:54 10° ESE visible
22 Jan 9.9 04:16:43 32° SSW 04:20:13 39° SSE 04:33:02 10° ESE visible
22 Jan 10.7 06:19:26 10° WSW 06:29:55 40° S 06:44:41 10° SE visible
23 Jan 10.6 02:32:24 23° SE 02:32:24 23° SE 02:38:22 10° ESE visible
23 Jan 9.9 04:33:49 29° SW 04:38:01 40° S 04:51:00 10° ESE visible
23 Jan 10.8 06:37:31 10° WSW 06:47:49 36° SSW 07:02:03 10° SE visible
24 Jan 10.3 02:49:29 27° SE 02:49:29 27° SE 02:56:38 10° ESE visible
24 Jan 10.0 04:50:55 26° SW 04:55:53 39° S 05:08:50 10° ESE visible
25 Jan 10.1 03:06:35 31° SE 03:06:35 31° SE 03:14:46 10° ESE visible
25 Jan 10.1 05:08:01 21° SW 05:13:46 37° S 05:26:31 10° SE visible
